User: anonymous   Login
Location: Fouquenies
(49.4624°N, 2.0492°E)
Time: 09:25:13
(UTC+00:00)
Language:

Cosmos 1825 - Orbit

View from above orbital plane
View from above orbital plane
View from above satellite
View from above satellite

Ground track
Ground track

The orbit data is extracted from the following two-line orbital elements,

1 17566U 87024A   23151.83077978  .00010418  00000-0  37148-3 0  9997
2 17566  82.5008 287.1013 0003688 164.1321 196.0034 15.28759666984060
Epoch (UTC): 31 May 2023 19:56:19
Eccentricity: 0.0003688
inclination: 82.5008°
perigee height: 477 km
apogee height: 482 km
right ascension of ascending node: 287.1013°
argument of perigee: 164.1321°
revolutions per day: 15.28759666
mean anomaly at epoch: 196.0034°
orbit number at epoch: 98406

The dashed part of the orbit path shows where the satellite is in the earth's shadow,  

DLR